This is the latest recevied weather packets stored in our database for station/object KJ4AJP. If no packets are shown the sender has not sent any weather packets the latest 10 day(s).
| Time | Temp. | Humidity | Pressure | Rain* | Wind** | Luminosity | Snow |
|---|---|---|---|---|---|---|---|
| 1777726911 | 11.67° C | 74% | 1017.9 hPa | 0 mm | - | 77 W/m² | - |
| 1777726606 | 10.56° C | 82% | 1017.9 hPa | 0 mm | - | 111 W/m² | - |
| 1777726304 | 10° C | 94% | 1018 hPa | 0 mm | - | 59 W/m² | - |
| 1777726000 | 8.89° C | 95% | 1017.7 hPa | 0 mm | - | 46 W/m² | - |
| 1777725698 | 8.33° C | 96% | 1017.9 hPa | 0 mm | - | 42 W/m² | - |
| 1777725396 | 7.78° C | 97% | 1017.9 hPa | 0 mm | - | 40 W/m² | - |
| 1777725093 | 7.78° C | 98% | 1017.7 hPa | 0 mm | - | 51 W/m² | - |
| 1777724789 | 7.22° C | 99% | 1017.7 hPa | 0 mm | - | 33 W/m² | - |
| 1777724486 | 6.67° C | 98% | 1017.6 hPa | 0 mm | - | 34 W/m² | - |
| 1777724184 | 6.11° C | 98% | 1017.6 hPa | 0 mm | - | 32 W/m² | - |
| 1777723881 | 5.56° C | 98% | 1017.6 hPa | 0 mm | - | 29 W/m² | - |
| 1777723578 | 5.56° C | 98% | 1017.6 hPa | 0 mm | - | 27 W/m² | - |
| 1777723274 | 5° C | 98% | 1017.5 hPa | 0 mm | - | 26 W/m² | - |
| 1777722973 | 5° C | 98% | 1017.4 hPa | 0 mm | - | 24 W/m² | - |
| 1777722668 | 5° C | 98% | 1017.5 hPa | 0 mm | - | 23 W/m² | - |
| 1777722365 | 4.44° C | 98% | 1017.4 hPa | 0 mm | - | 20 W/m² | - |
| 1777722062 | 4.44° C | 97% | 1017.4 hPa | 0 mm | - | 19 W/m² | - |
| 1777721759 | 3.89° C | 97% | 1017.1 hPa | 0 mm | - | 16 W/m² | - |
| 1777721457 | 3.89° C | 97% | 1017.3 hPa | 0 mm | - | 14 W/m² | - |
| 1777721155 | 3.89° C | 97% | 1017.1 hPa | 0 mm | - | 11 W/m² | - |
| 1777720853 | 3.89° C | 97% | 1017.1 hPa | 0 mm | - | 9 W/m² | - |
| 1777720550 | 4.44° C | 97% | 1017 hPa | 0 mm | - | 7 W/m² | - |
| 1777720247 | 4.44° C | 97% | 1017.1 hPa | 0 mm | - | 5 W/m² | - |
| 1777719944 | 4.44° C | 97% | 1016.9 hPa | 0 mm | - | 3 W/m² | - |
| 1777719642 | 4.44° C | 96% | 1017.1 hPa | 0 mm | - | 2 W/m² | - |
* Rain latest hour (hover to see other rain measurements)
** Current wind speed in m/s (hover to see current wind gust speed)